Regional Weather Roundup
Issued by NWS

Home | Current Version | Previous Version | Text Only | Print | Product List | Glossary On
Versions: 1 2 3 4 5 6 7 8 9 10 11 12 13 14 15 16 17 18 19 20 21 22 23 24 25 26 27 28 29 30 31 32 33 34 35 36 37 38 39 40 41 42 43 44 45 46 47 48 49 50
874
ASUS44 KJAN 271110
RWRMS

MISSISSIPPI HOURLY WEATHER ROUNDUP
NATIONAL WEATHER SERVICE JACKSON MS
600 AM CDT WED AUG 27 2014

NOTE: "FAIR: INDICATES FEW OR NO CLOUDS BELOW 12,000 FEET WITH NO
SIGNIFICANT WEATHER AND/OR OBSTRUCTIONS TO VISIBILITY.

MSZ001>002-007>008-010>013-018>021-025>028-034>036-271200-
NORTHWEST MISSISSIPPI

CITY           SKY/WX    TMP DP  RH WIND       PRES   REMARKS
CLARKSDALE     FAIR      72  70  94 CALM      30.07R
CLEVELAND      FAIR      69  69  99 CALM      30.04S
GREENWOOD      PTCLDY    70  65  84 CALM      30.05R
GREENVILLE     PTCLDY    68  65  90 CALM      30.04R
GRENADA        FAIR      68  64  88 CALM      30.06S
OLIVE BRANCH   CLEAR     70  70 100 CALM      30.08R
OXFORD         FAIR      68  64  88 CALM      30.09R
TUNICA         SUNNY     70  68  94 CALM      30.07R FOG
$$

MSZ003>006-009-014>017-022>024-029>033-037>039-271200-
NORTHEAST MISSISSIPPI

CITY           SKY/WX    TMP DP  RH WIND       PRES   REMARKS
BELMONT        FAIR      65  64  99 CALM      30.08S
COLUMBUS AFB   CLEAR     67  66  99 CALM      30.06R
CORINTH        FOG       66  64  94 CALM      30.08R VSB 1/4
GOLDN TRIANGLE CLEAR     66  61  82 CALM      30.06R
STARKVILLE     FAIR      63  63 100 CALM      30.06S
TUPELO         CLEAR     67  65  93 NE5       30.07R
$$

MSZ040-058-271200-
CENTRAL MISSISSIPPI

CITY           SKY/WX    TMP DP  RH WIND       PRES   REMARKS
JACKSON INTL   PTCLDY    70  65  84 CALM      30.03S
JACKSON HAWKNS CLEAR     72  66  81 CALM      30.04S
MERIDIAN KEY   CLEAR     64  63  96 N3        30.05R
MERIDIAN NAS   CLEAR     64  62  93 CALM      30.05R
RAYMOND        FAIR      66  63  88 CALM      30.04R HAZE
VICKSBURG      CLEAR     67  65  93 CALM      30.03R
$$

MSZ059>079-271200-
SOUTH MISSISSIPPI

CITY           SKY/WX    TMP DP  RH WIND       PRES   REMARKS
BROOKHAVEN     PTSUNNY   70  66  88 CALM      30.04S
COLUMBIA       FAIR      66  66 100 MISG      30.01R
HATTIESBURG    CLEAR     69  67  93 CALM      30.02R
MCCOMB         CLEAR     72  65  78 CALM      30.02R
NATCHEZ        MOCLDY    66  64  94 CALM      30.03R
PINE BELT      CLEAR     72  64  78 N5        30.03S
$$

MSZ080>082-271200-
COASTAL MISSISSIPPI

CITY           SKY/WX    TMP DP  RH WIND       PRES   REMARKS
BILOXI         CLEAR     75  71  87 NE6       29.99R
PASCAGOULA     CLEAR     71  70  96 CALM      29.99R
GULFPORT       CLEAR     76  72  87 NE3       29.98R
$$



USA.gov is the U.S. government's official web portal to all federal, state and local government web resources and services.